Location: Croisilles
(50.1998°N, 2.8793°E)
Time: 13:23:00
(UTC+00:00)

YAOGAN 1 - Pass Details

Date: 21 January 2021
Orbit: 618 x 620 km, 97.9° (Epoch: 27 February)

Event Time Altitude Azimuth Distance (km) Brightness Sun altitude
Rises 18:46:46 0° 178° (S) 2,886 6.0 -22.4°
Reaches altitude 10° 18:49:00 10° 184° (S) 1,985 5.2 -22.8°
Maximum altitude 18:53:12 50° 260° (W) 793 3.4 -23.5°
Drops below altitude 10° 18:57:26 10° 337° (NNW) 2,000 5.4 -24.1°
Sets 18:59:42 0° 342° (NNW) 2,911 6.2 -24.5°
